Theta_e
358 359 360 360 360 359 357 358 356 355 354 353 354 354 353 355 354 352 353 355 355 355 354 356 356 355 355 356 353 353 356 357 357 358 362 361 359 358 359 361 362 360 359 358 356 355 355 357 358 357 357 356 355 354 355 354 354 356 359 359 357 357 357 355 353 352 352 352 351 350 351 352 352 351 351 350 349 349 348 348 348 348 348 346 344
357 358 359 359 359 359 359 359 357 355 355 353 353 354 353 354 354 354 356 355 354 354 354 355 356 355 356 356 354 353 354 358 358 357 360 362 360 358 358 361 363 362 360 359 358 357 357 359 360 359 357 358 357 356 356 355 354 356 358 357 355 356 357 354 352 351 352 351 348 349 351 352 351 350 350 349 348 348 347 347 348 347 346 345 343
357 358 359 358 358 358 359 361 358 355 354 353 352 353 354 354 354 356 358 356 353 355 355 354 355 355 356 356 356 355 354 358 361 358 358 361 360 359 358 359 363 364 362 361 360 359 359 361 362 361 359 359 358 357 357 357 355 355 356 354 353 355 355 352 350 349 351 351 347 347 350 351 350 348 347 346 345 346 346 347 346 345 345 343 342
357 358 359 358 358 358 360 361 359 355 354 354 353 353 353 355 355 356 358 357 355 356 357 355 355 355 356 357 358 358 356 359 362 360 359 362 361 359 359 359 362 364 364 363 362 362 362 362 363 364 362 361 360 358 358 359 357 355 354 354 354 355 355 353 350 348 350 351 348 348 350 350 349 346 344 343 343 344 345 345 344 344 343 342 341
357 358 358 359 358 358 359 361 359 357 356 355 355 355 355 356 357 357 358 358 357 359 359 357 355 355 356 359 360 360 359 360 362 361 361 362 361 359 359 361 362 364 365 364 363 363 362 361 363 364 362 361 360 359 358 359 357 354 353 355 355 355 354 354 353 350 350 350 349 351 351 348 346 344 342 342 342 342 342 342 342 341 341 341 340
356 357 358 360 360 360 359 359 360 359 358 357 356 357 356 357 359 358 357 358 359 360 360 358 356 355 357 360 361 362 362 360 361 362 361 362 361 360 360 363 364 365 365 364 362 361 357 356 358 360 360 359 358 357 356 356 355 352 353 355 355 354 354 355 354 352 351 351 351 351 349 346 345 344 343 342 342 341 340 340 340 340 340 341 340
355 356 358 359 359 360 358 357 360 360 359 358 357 358 358 357 359 358 357 358 359 360 361 360 359 357 357 359 361 362 363 361 361 362 363 363 363 362 361 364 365 364 363 362 360 358 356 356 358 359 359 358 355 354 354 354 353 352 354 356 355 354 354 353 353 353 352 351 349 348 347 345 344 344 342 342 342 341 340 340 340 339 340 341 340
354 356 357 357 358 358 357 357 361 362 361 360 359 361 360 357 357 357 355 357 359 359 360 360 360 359 357 359 361 362 361 361 361 362 364 364 364 364 364 364 363 361 359 359 359 358 357 357 358 358 357 355 354 353 353 353 352 351 354 356 354 354 354 353 353 351 349 347 346 346 345 345 344 343 342 342 342 342 341 340 340 340 340 341 340
353 353 355 356 357 358 357 358 358 358 358 360 360 361 360 358 357 357 356 357 358 358 359 359 359 359 358 358 360 360 360 359 358 358 362 365 365 365 364 362 359 356 355 356 356 357 357 357 357 356 353 353 354 354 354 354 351 349 352 355 354 354 353 351 350 348 346 345 346 346 345 344 344 344 343 342 341 341 341 340 340 340 340 340 340
351 352 353 354 356 356 356 358 357 355 355 358 359 360 360 359 358 357 357 357 358 358 359 359 360 359 359 359 359 359 359 359 357 355 358 363 364 363 361 358 354 352 354 355 355 355 356 356 356 354 353 353 354 353 352 352 352 351 352 354 354 352 350 347 346 346 346 346 346 345 345 344 344 343 342 341 340 340 340 339 340 340 340 341 341
351 351 352 352 354 355 355 356 358 356 355 357 358 359 359 359 358 357 357 357 358 359 359 360 362 360 360 361 359 358 359 358 357 356 357 360 362 360 358 355 352 353 355 355 354 354 355 355 355 354 353 353 353 352 352 351 351 350 349 348 348 347 347 347 346 346 346 346 345 344 344 344 343 342 341 340 339 339 340 339 339 340 340 340 341
350 350 351 351 353 354 354 356 358 357 357 357 358 358 358 358 358 358 358 358 358 359 359 361 363 361 360 360 359 358 358 357 356 357 358 360 360 359 358 356 352 352 354 355 355 354 355 356 355 353 352 352 351 351 351 349 347 345 343 344 344 343 344 346 347 346 346 345 344 344 343 343 342 341 340 339 338 339 339 338 339 339 339 339 340
351 351 351 352 352 354 354 355 357 357 357 357 358 358 358 357 358 358 358 359 358 358 359 362 363 361 360 359 359 358 357 357 357 357 358 358 356 356 358 356 351 351 355 356 355 355 355 355 354 352 351 352 350 349 349 346 345 343 343 344 344 343 342 343 344 345 345 344 344 343 342 342 341 341 339 338 337 338 338 338 338 338 338 338 338
352 352 353 352 353 354 354 355 356 356 358 358 358 359 357 355 356 358 359 359 358 358 359 361 361 360 359 358 359 359 358 358 358 357 357 355 352 354 356 354 352 353 355 355 355 355 355 353 352 350 348 348 348 347 347 346 345 344 343 344 343 342 341 341 341 342 343 342 342 341 340 340 339 339 338 337 337 337 337 338 338 337 337 337 337
353 352 353 353 353 354 354 355 355 356 357 356 356 358 356 353 354 358 360 360 358 357 357 359 359 358 357 356 358 359 358 358 358 356 354 352 350 352 355 354 353 355 355 355 355 354 352 351 350 348 347 346 346 346 345 344 344 343 343 342 340 339 340 340 339 339 339 339 339 338 337 336 335 335 335 336 337 336 336 336 336 335 335 336 335
353 353 353 353 353 353 353 354 355 356 357 356 355 354 354 354 353 355 358 360 358 358 358 358 358 357 356 355 356 358 357 357 357 355 352 350 350 353 354 353 353 354 354 354 353 351 350 350 348 347 346 344 342 342 342 342 343 342 340 338 336 334 335 336 336 336 336 335 334 333 331 331 330 330 330 330 331 333 334 334 333 333 333 333 333
352 353 353 353 353 353 353 354 355 355 356 357 357 354 353 353 352 352 355 359 359 358 357 358 357 356 356 355 355 357 357 356 356 354 351 350 351 353 353 353 353 354 353 351 350 349 349 347 345 344 343 339 337 340 342 342 342 341 338 336 333 331 330 330 330 330 330 330 329 328 327 326 326 325 325 324 324 327 332 332 330 330 330 330 331
347 348 349 350 351 354 353 353 354 355 355 355 354 353 354 353 351 352 355 358 358 357 356 356 356 356 356 355 355 357 358 356 355 353 351 350 351 353 353 353 352 351 349 348 347 345 343 340 339 340 339 337 337 340 341 341 341 340 337 336 334 331 328 326 325 324 324 324 324 323 322 322 321 320 319 319 319 323 330 331 328 328 329 328 327
345 344 345 346 349 352 352 354 355 354 354 354 351 352 355 353 351 353 356 356 356 356 355 355 355 355 355 354 354 356 358 356 353 352 351 350 351 352 352 351 349 347 345 343 341 339 338 338 338 337 337 337 339 340 340 340 340 339 337 336 335 332 329 327 326 325 325 325 324 323 322 322 321 320 318 317 317 321 325 327 326 326 325 323 322
346 345 347 348 349 351 351 352 354 354 354 355 354 354 357 355 353 353 354 355 355 356 355 355 354 353 353 353 354 355 357 355 353 352 351 350 351 352 350 348 345 343 340 338 336 337 339 340 340 338 336 337 338 339 338 338 338 337 336 336 334 332 329 328 327 327 326 325 324 323 323 322 321 321 319 319 318 319 320 321 321 323 322 322 321
346 347 349 349 349 352 352 350 351 354 354 354 354 355 357 356 354 353 354 355 355 355 355 354 353 353 354 354 355 354 355 354 352 352 351 351 350 350 349 346 342 339 337 336 337 337 338 339 338 336 336 337 337 337 336 336 335 335 335 334 331 329 328 326 325 324 324 323 322 321 321 320 319 319 318 318 318 318 318 318 318 318 318 320 320
346 347 347 345 344 349 353 351 350 352 354 354 354 355 356 355 354 353 353 354 353 353 353 353 353 354 354 353 353 353 353 352 352 352 351 350 349 348 346 343 340 337 336 336 337 335 335 336 336 335 335 333 332 332 331 330 330 330 330 329 325 324 324 323 322 322 322 321 321 320 319 319 318 318 317 317 317 317 317 317 316 316 316 316 316
346 346 346 345 343 344 348 351 350 350 352 353 354 356 356 354 353 353 353 354 354 354 352 352 353 353 353 352 351 352 351 350 351 352 350 349 348 347 344 341 338 337 336 335 334 333 333 333 331 329 327 326 324 323 321 319 320 320 320 320 319 320 321 321 321 321 320 319 319 319 318 318 318 317 317 317 316 316 315 315 315 315 315 314 314
344 344 344 345 345 344 346 349 349 349 350 352 354 356 355 354 353 352 352 353 354 353 351 351 351 351 350 350 350 349 349 347 349 350 348 346 346 345 342 339 337 336 335 334 332 332 329 326 324 323 322 320 318 315 313 312 313 313 313 315 317 319 320 320 320 320 319 319 319 318 318 317 317 317 316 315 315 315 314 314 314 314 314 314 313
341 342 343 344 344 345 347 349 349 349 349 350 352 354 353 354 353 352 352 353 353 352 351 350 349 349 348 348 347 345 345 346 346 346 345 344 343 341 339 338 336 335 334 332 330 328 324 322 321 321 319 316 313 312 311 311 312 312 313 315 318 319 319 319 319 319 319 318 317 316 315 315 314 315 315 314 314 315 315 315 314 314 314 314 314
341 341 342 345 345 345 348 349 349 349 349 348 349 351 351 351 352 351 352 353 353 352 350 349 349 348 347 347 345 343 343 344 343 341 342 343 342 340 338 337 335 335 333 330 326 323 322 321 319 317 315 315 313 312 311 311 311 312 315 317 318 318 318 319 319 318 318 316 315 314 314 313 313 314 315 315 315 315 315 316 315 315 315 315 315
342 341 342 345 346 347 349 349 349 350 350 348 348 348 349 349 349 349 351 351 351 351 349 348 349 348 347 346 345 343 342 341 338 337 339 340 339 337 336 335 334 333 329 324 322 320 318 317 316 315 315 315 314 312 311 312 313 315 316 317 317 317 318 318 317 317 316 315 314 313 313 313 314 315 315 316 315 315 315 315 315 315 315 315 315
343 342 342 344 346 348 349 349 349 349 349 348 347 348 348 348 349 349 349 350 350 350 349 348 348 348 346 345 344 343 341 338 336 336 337 338 337 335 334 332 331 329 324 320 317 316 315 316 317 317 316 315 315 315 315 315 316 316 316 316 316 316 316 316 316 316 315 314 314 314 314 315 315 315 315 315 315 315 315 315 315 315 314 314 314
344 342 341 344 347 348 348 348 348 347 347 346 345 345 345 346 348 349 348 348 348 348 349 349 348 347 345 343 343 343 340 337 336 336 337 337 336 334 332 330 328 325 322 319 318 317 319 321 320 320 319 319 319 318 317 316 316 316 315 315 315 315 315 315 316 316 315 315 315 315 315 315 315 315 315 315 315 315 315 314 315 314 314 314 314
343 342 342 345 347 347 347 347 346 345 344 344 342 341 340 342 344 346 347 346 346 346 346 347 347 346 344 343 343 343 340 337 336 336 336 336 335 334 333 331 327 323 321 320 321 321 323 323 321 321 321 321 320 318 317 317 317 316 315 315 315 316 316 315 316 315 315 315 315 315 315 315 315 315 315 315 315 315 315 315 315 315 314 314 315
344 343 343 345 346 347 347 346 344 343 342 342 341 340 340 339 341 343 345 344 344 344 345 345 345 345 344 344 344 343 340 337 336 336 336 336 335 334 333 330 326 322 321 322 322 322 322 321 321 322 322 321 320 319 317 316 316 315 315 316 316 315 315 315 315 314 314 315 315 314 315 315 315 315 315 315 315 315 315 315 315 315 315 315 314
345 344 345 346 346 346 346 344 342 341 340 341 340 340 339 338 338 338 340 342 343 343 343 343 344 344 344 344 344 342 340 337 336 336 336 335 334 334 332 329 325 322 322 323 323 322 321 322 321 322 322 321 320 318 317 316 316 316 316 316 315 315 315 315 314 315 315 315 315 315 315 315 315 315 314 315 315 315 315 315 315 315 314 314 314
346 346 346 346 346 346 346 344 341 340 340 341 341 340 340 339 335 333 334 337 339 340 341 342 342 343 343 344 344 342 339 338 336 336 336 335 334 332 330 326 323 322 323 324 323 322 323 323 323 323 322 320 319 318 317 316 316 316 316 316 315 315 315 313 314 316 315 313 314 315 315 315 315 315 315 315 315 314 314 314 314 314 314 314 314
346 346 347 346 346 345 346 344 342 340 340 341 341 341 341 340 336 333 333 334 335 335 337 338 340 341 342 343 343 342 340 338 336 336 336 334 331 328 326 323 322 323 324 325 325 324 325 325 324 322 321 319 319 317 316 316 316 316 316 316 315 316 315 314 315 316 315 314 315 316 315 315 315 315 315 315 315 314 314 314 314 314 314 313 313
345 346 347 346 346 345 344 344 343 341 340 341 341 341 341 340 337 336 336 336 334 331 331 333 336 340 341 342 342 341 339 337 336 335 334 331 327 324 323 321 322 324 326 327 327 327 326 324 323 321 320 320 318 317 317 317 317 316 316 316 316 315 315 315 316 316 316 316 316 316 315 315 315 315 315 315 314 314 314 313 313 313 312 312 311
345 346 346 346 345 344 343 343 343 341 341 341 341 341 341 339 339 338 337 336 334 330 326 326 329 333 336 338 339 338 337 336 335 333 331 329 327 325 324 323 325 328 328 328 328 327 325 323 322 321 320 319 318 317 317 317 317 316 316 316 315 315 316 317 317 316 316 316 316 316 315 315 315 315 314 314 313 313 312 312 311 311 310 310 309
345 346 346 346 345 344 343 343 342 341 341 341 340 340 340 339 339 339 337 335 335 332 326 323 324 325 326 328 333 335 336 336 335 333 330 329 327 326 326 327 328 329 328 327 326 326 324 322 322 321 320 319 317 317 317 317 317 317 316 316 316 317 317 316 316 316 316 316 316 316 316 315 315 314 313 313 312 311 311 310 309 309 308 308 308
344 345 345 345 344 343 342 342 342 340 340 340 340 339 339 339 338 338 337 336 335 333 330 328 326 324 321 322 328 333 332 329 327 326 325 326 327 328 328 329 330 329 327 326 325 324 323 322 321 320 319 318 317 317 316 316 316 316 315 316 317 316 315 315 315 316 316 316 316 315 315 314 314 313 312 311 311 310 309 309 308 308 308 308 309
344 344 344 344 344 342 342 341 341 340 340 340 340 339 339 339 337 337 337 336 334 334 333 331 329 325 321 320 323 327 326 322 320 321 323 327 330 330 330 329 329 328 326 324 323 322 321 321 320 319 318 317 316 316 315 315 315 316 316 317 317 316 315 316 317 316 316 315 315 314 314 313 312 311 310 310 309 308 308 308 308 308 308 308 309
344 344 344 344 342 341 341 340 340 340 340 340 340 340 339 339 338 337 336 335 335 335 334 332 328 325 322 322 323 325 325 322 322 324 327 331 331 331 329 329 328 326 325 324 323 321 320 320 319 318 317 316 316 315 315 316 316 316 316 316 317 317 316 316 316 315 315 314 314 313 312 312 311 310 309 308 308 307 307 307 308 308 308 308 308
343 343 343 342 341 341 341 340 339 340 340 340 340 340 339 339 338 337 335 335 336 335 333 330 327 324 324 325 327 328 327 327 327 328 330 331 330 329 329 329 327 325 323 322 321 320 319 319 318 317 316 316 316 316 316 316 316 316 316 316 316 316 315 315 315 314 314 313 312 311 311 310 309 307 307 306 306 306 307 307 308 307 307 307 307
342 343 342 341 341 341 341 340 339 339 339 339 340 339 338 337 336 335 335 335 334 332 329 327 325 324 325 327 328 329 329 329 329 330 330 330 329 329 327 326 324 322 320 319 319 318 318 317 316 316 316 316 315 315 315 315 316 316 316 316 316 315 315 314 314 313 312 311 310 310 309 308 307 306 305 306 306 306 307 307 307 306 306 306 306
341 343 342 340 340 340 340 339 338 338 338 338 338 337 336 335 334 334 334 333 330 327 325 324 323 324 326 328 329 329 328 328 328 328 327 326 326 324 323 321 321 320 319 319 318 317 316 316 316 316 316 316 316 316 316 315 315 315 315 315 315 314 314 313 312 311 311 309 308 308 307 306 305 305 305 306 306 306 307 307 306 305 305 305 305
341 342 342 340 339 338 337 337 336 335 334 334 334 333 332 331 331 331 330 329 327 325 323 322 323 324 325 326 327 327 327 326 326 325 324 323 322 321 320 319 319 318 317 316 314 312 312 313 313 313 313 314 315 315 315 315 315 315 315 314 314 313 312 312 310 309 308 307 306 306 305 305 305 305 305 306 306 306 306 306 305 304 304 304 304
341 341 340 337 335 334 333 333 332 331 330 330 330 328 327 326 326 325 325 323 322 322 322 322 323 324 324 324 324 324 323 323 322 321 320 320 319 318 317 316 315 314 313 312 311 311 311 311 311 311 312 312 312 312 313 313 313 313 313 313 312 310 309 309 307 306 306 305 304 304 303 304 304 305 305 305 305 305 305 304 304 303 303 303 304
339 338 335 333 331 330 330 329 328 328 328 327 326 324 323 322 321 321 320 320 320 320 321 321 322 322 322 321 321 320 319 318 317 316 316 315 314 314 313 312 312 312 311 311 311 311 311 311 311 311 311 311 311 311 311 311 310 310 310 309 309 308 307 305 304 304 303 303 302 302 303 303 304 304 303 303 303 304 304 303 303 303 303 303 303
335 332 330 329 328 327 327 326 326 326 325 324 323 322 321 320 320 319 319 319 319 319 320 320 319 319 319 318 317 316 315 314 313 313 312 312 312 312 312 311 311 311 311 311 311 311 311 311 311 311 311 311 311 310 310 309 309 308 308 308 307 306 305 303 302 302 301 301 301 301 302 302 303 303 302 302 302 303 303 303 303 303 303 302 302
329 328 327 327 326 326 325 325 324 324 323 322 321 320 320 319 319 319 319 318 318 318 318 317 317 316 316 315 315 314 314 313 313 312 312 312 312 312 312 311 311 311 311 311 312 311 312 312 312 311 311 311 310 310 309 309 308 308 308 307 306 305 303 302 301 300 299 299 300 301 301 301 301 302 302 302 302 303 303 303 303 302 302 302 302
326 326 325 325 325 324 324 324 323 323 322 321 321 320 320 319 319 318 318 317 317 316 316 315 314 314 314 314 314 314 313 313 313 313 313 312 312 312 312 312 312 311 312 312 312 312 312 312 312 311 311 310 310 310 309 308 308 308 307 306 304 303 302 302 300 298 297 298 299 300 300 300 301 301 301 302 302 302 302 302 302 302 301 301 301
324 324 324 324 323 323 323 323 323 322 321 321 320 320 320 319 319 318 318 318 317 316 315 314 314 314 313 313 313 313 313 313 313 313 312 312 312 311 312 312 312 312 312 312 312 312 312 311 311 311 311 310 309 309 308 308 307 306 306 304 303 302 302 300 298 296 295 297 298 299 300 300 301 301 301 302 302 302 302 302 301 301 301 301 301
323 323 323 323 323 323 323 323 322 322 321 321 321 320 320 320 319 319 319 319 318 317 316 316 315 315 314 314 313 313 313 313 312 312 311 311 310 311 311 312 312 312 312 312 312 312 311 311 311 311 310 309 309 308 307 307 306 305 304 303 302 302 301 299 297 295 295 295 297 299 300 300 301 301 301 301 301 301 301 301 300 300 301 301 301
Wind_Speed
17 17 18 19 21 21 20 21 27 31 29 29 29 26 24 23 24 25 22 22 21 19 19 19 19 20 20 19 21 21 20 20 20 18 17 18 18 17 16 15 16 16 15 15 16 15 15 14 13 12 11 11 11 9 8 8 8 8 5 4 6 7 6 6 6 9 13 12 12 12 6 4 5 4 4 5 5 6 6 5 6 5 5 5 5
16 17 17 17 19 21 22 25 28 26 25 28 30 27 25 24 22 21 23 25 22 19 20 20 19 19 20 21 22 22 21 20 20 20 18 18 18 18 17 16 16 15 15 15 15 15 13 12 12 12 11 11 10 9 9 9 9 9 8 9 10 9 8 8 7 8 10 11 13 11 3 2 5 3 3 5 5 6 6 5 5 4 5 5 4
16 17 17 16 17 20 23 25 26 24 25 29 31 29 26 24 23 22 24 24 23 21 21 22 22 21 21 23 22 21 22 20 20 21 19 18 18 18 18 17 16 16 15 14 14 15 14 12 11 10 10 10 9 9 9 9 9 10 11 12 11 8 7 8 9 10 10 9 10 8 2 1 3 2 3 4 5 6 6 5 5 5 5 5 4
16 17 16 16 18 20 21 23 25 27 28 29 31 31 28 25 24 26 25 23 22 22 22 22 22 22 24 24 21 21 21 20 20 20 20 19 19 19 18 17 16 15 15 14 14 14 14 13 10 9 9 9 8 9 9 8 9 11 12 11 9 7 8 9 10 10 9 7 6 4 1 0 1 2 3 4 4 5 6 6 6 5 5 5 4
17 18 17 16 17 19 20 22 24 28 30 29 30 31 28 25 24 25 25 23 22 21 21 22 22 23 25 23 21 21 22 21 20 20 19 19 19 19 18 16 16 14 13 14 15 14 14 12 10 9 10 9 9 9 8 8 9 11 12 10 8 8 8 8 7 8 8 7 4 2 1 1 1 1 3 4 4 4 5 4 4 5 5 4 3
17 18 18 15 16 18 21 23 24 26 27 28 29 28 27 26 25 27 28 26 23 22 21 22 22 23 24 23 21 21 21 22 21 20 20 19 18 20 19 16 14 13 12 12 13 15 14 12 13 13 12 10 10 9 9 10 11 12 12 10 8 8 7 7 7 7 7 6 4 2 2 1 0 1 2 4 5 4 5 4 3 4 4 3 3
17 18 19 16 15 17 20 22 23 24 25 26 26 25 27 30 29 29 29 27 25 23 21 21 21 21 23 23 21 20 20 21 21 20 19 19 19 19 18 15 13 13 13 12 13 14 12 12 14 14 12 11 12 13 13 12 11 11 10 8 7 7 7 7 7 6 6 5 4 3 2 1 1 1 2 3 3 3 5 5 4 4 4 3 3
16 18 19 18 17 17 18 19 19 21 22 23 24 24 26 30 30 30 28 26 24 24 23 22 21 20 21 21 19 19 19 20 20 19 18 18 18 17 15 15 14 14 14 15 16 14 11 12 13 13 12 12 12 12 12 11 11 11 9 8 7 7 7 7 6 6 5 4 3 3 2 1 1 0 2 3 3 3 4 5 5 4 4 4 3
16 17 19 19 18 17 17 18 19 21 21 22 23 24 25 27 27 26 25 23 23 23 23 23 22 22 21 20 19 19 18 20 21 20 19 17 16 16 17 17 17 16 14 15 15 13 11 12 13 13 14 13 11 10 12 11 10 10 8 7 7 7 8 8 5 4 4 3 3 3 3 2 2 0 2 3 4 5 4 4 5 4 5 5 3
15 17 18 19 19 19 18 16 17 21 23 23 23 22 22 23 23 22 22 22 21 22 23 23 23 23 21 20 21 21 20 22 24 22 20 19 19 20 20 18 16 16 16 17 15 13 12 13 12 12 12 11 10 11 11 10 9 9 7 6 7 8 8 7 5 3 4 4 4 4 3 2 2 1 2 3 4 5 4 4 5 5 6 6 3
14 15 16 18 19 19 18 16 16 19 22 23 23 21 21 21 21 22 22 22 21 22 22 22 21 21 20 19 20 23 22 24 25 23 22 23 22 21 19 18 16 16 17 16 14 14 14 13 13 12 10 10 9 9 8 6 6 7 6 5 6 7 6 5 4 5 5 4 3 2 3 1 2 1 2 3 4 5 4 4 5 5 5 6 4
14 14 16 17 17 17 17 17 17 18 20 21 22 21 21 21 21 22 22 22 22 22 21 19 18 19 20 19 20 23 24 25 26 23 23 25 24 20 18 18 19 18 16 15 14 15 15 14 13 12 12 12 10 9 8 6 6 6 5 5 6 6 5 3 2 3 4 3 3 2 1 1 1 1 2 4 4 5 4 4 4 4 5 6 5
14 14 15 16 16 16 16 16 16 17 18 19 19 19 20 21 21 21 21 22 22 21 19 17 16 18 19 19 20 23 23 24 24 23 24 25 25 21 18 20 22 20 16 15 17 18 17 16 14 12 13 15 13 13 12 10 8 8 6 5 3 2 2 1 1 2 2 2 3 4 2 1 1 2 3 3 4 5 5 5 4 4 5 5 4
14 14 14 14 14 14 14 15 16 16 16 16 15 16 18 19 19 18 17 18 20 20 17 15 16 18 19 19 19 19 20 22 24 25 25 25 24 22 20 20 20 17 16 18 20 19 17 17 16 14 14 15 14 13 14 12 10 9 7 7 5 5 6 5 4 4 5 4 4 5 5 3 4 4 3 3 5 6 6 6 5 5 5 5 3
14 13 13 13 13 13 13 14 15 15 14 14 15 15 16 17 18 16 14 15 18 19 16 15 17 19 20 21 19 17 18 21 24 26 26 25 24 22 19 17 17 17 18 19 19 19 18 17 16 15 14 14 14 14 13 12 11 10 8 8 7 6 7 7 6 6 6 5 6 6 5 3 2 2 1 3 5 6 6 6 5 5 5 4 1
14 13 13 12 12 12 13 13 14 14 14 14 15 17 17 17 18 17 15 15 16 16 15 15 18 19 21 23 21 18 18 21 23 24 25 24 24 22 19 18 19 19 19 18 19 19 18 17 17 16 15 15 15 15 13 12 11 10 9 9 9 9 9 8 7 7 7 6 7 6 5 4 3 2 1 2 4 5 6 5 4 4 6 5 3
14 13 12 12 12 12 13 13 13 14 14 13 15 16 17 17 18 18 17 15 16 17 17 17 20 21 22 24 24 20 19 22 23 23 24 25 24 22 19 20 20 19 19 18 17 17 17 17 18 17 15 16 17 17 15 13 13 12 11 10 10 11 11 10 7 7 7 6 6 6 5 4 3 2 1 2 2 3 5 4 3 4 5 4 4
15 15 15 15 13 12 13 13 13 13 13 14 15 15 16 17 18 17 16 16 16 17 18 19 21 22 23 25 25 20 18 22 24 23 25 27 25 23 21 21 19 18 19 17 16 17 17 18 18 17 17 18 19 19 16 14 13 12 11 10 10 9 9 9 9 9 7 7 6 6 6 6 5 5 4 3 3 4 4 4 4 4 3 3 4
15 16 19 19 16 14 13 13 13 13 12 14 16 17 16 17 19 18 17 16 16 17 18 19 20 21 23 25 25 20 18 21 24 24 26 28 28 26 23 21 19 19 20 18 17 19 18 17 17 16 18 20 20 19 16 13 12 12 11 10 9 9 8 8 9 8 7 6 6 6 7 7 7 7 7 6 7 8 8 6 6 5 3 3 4
15 15 17 18 17 14 13 14 13 13 12 13 14 15 14 16 20 20 19 18 17 16 16 18 20 22 23 22 22 20 19 21 23 24 27 30 30 27 22 21 23 24 23 22 23 22 19 18 17 17 20 21 20 18 16 13 12 11 10 9 8 8 8 8 7 7 7 7 7 7 7 7 6 6 7 8 9 9 9 8 7 6 4 3 3
18 17 17 18 17 13 12 13 13 13 13 13 13 13 13 15 19 20 20 20 19 17 16 17 19 20 19 18 17 18 21 22 22 24 28 33 34 28 22 24 28 29 26 25 25 22 20 20 21 20 21 20 18 17 16 14 12 11 9 9 11 11 10 10 9 9 8 7 7 7 6 6 6 6 6 7 8 8 8 8 8 7 5 4 4
19 18 19 21 19 15 12 11 11 12 11 11 11 11 13 15 18 19 19 19 17 15 14 15 14 13 12 13 14 16 19 22 22 26 33 38 37 30 25 27 31 32 29 25 22 21 22 24 24 22 21 19 17 16 15 14 13 12 11 13 15 14 12 10 9 8 7 7 6 6 6 5 5 5 6 6 7 7 7 6 6 5 5 4 4
19 18 19 20 19 18 13 9 9 10 10 10 10 11 13 16 18 19 18 16 14 13 13 11 10 9 9 10 12 15 18 19 22 29 37 39 36 32 30 31 32 33 30 26 23 25 27 28 26 24 22 20 18 15 13 13 13 13 13 14 15 13 11 9 8 7 7 7 6 6 5 5 5 5 5 5 6 5 5 4 4 3 3 3 3
16 17 20 19 17 16 12 7 7 8 9 10 10 10 12 15 16 18 17 15 14 13 13 11 10 10 10 8 9 12 14 15 19 29 37 38 37 36 35 35 34 32 29 28 29 31 31 30 28 25 22 20 17 15 14 15 15 16 16 16 14 12 9 9 9 8 7 7 6 6 5 5 4 5 5 5 5 4 3 3 2 2 2 2 2
16 18 20 18 14 13 10 5 6 7 9 11 11 11 12 14 15 16 17 16 14 12 12 12 10 10 10 8 7 9 12 15 21 28 34 38 40 40 39 37 35 32 30 32 34 34 32 30 27 24 22 20 19 18 17 17 17 16 16 14 12 10 9 9 9 8 7 7 6 6 6 5 5 5 5 4 4 2 1 1 1 1 1 1 2
18 20 20 17 13 11 9 5 6 7 8 11 13 14 15 15 16 16 15 13 12 11 12 12 10 10 8 8 9 12 13 17 23 31 37 41 41 41 39 36 34 33 33 35 36 34 32 30 27 24 22 20 19 20 19 18 17 15 13 11 9 9 9 8 8 8 7 7 7 7 6 6 5 5 4 3 2 1 1 1 2 2 2 3 4
16 18 19 16 11 9 8 5 5 6 6 7 10 12 13 13 13 14 13 12 11 11 12 12 10 9 9 9 11 12 15 20 25 31 36 40 40 39 39 37 36 37 38 38 36 34 31 29 26 24 22 20 19 20 19 16 14 13 11 10 9 9 9 9 8 8 7 7 7 6 6 6 5 4 3 2 1 0 1 2 3 4 4 4 5
12 14 17 14 9 6 6 4 4 4 4 6 8 8 8 9 9 10 11 11 10 9 10 10 9 10 12 13 13 13 15 22 28 30 35 40 40 39 39 39 40 42 42 40 37 35 32 28 25 23 21 19 18 17 15 12 11 11 10 11 11 11 10 10 9 7 7 6 7 6 5 5 3 2 2 1 1 2 2 3 4 5 5 6 7
12 14 16 12 6 4 4 2 3 2 3 5 6 5 3 5 6 6 8 10 8 7 8 10 10 13 16 18 19 17 16 22 30 34 37 41 41 41 42 43 43 45 44 42 38 33 27 24 21 19 17 16 14 13 13 12 11 11 11 11 11 10 10 9 8 7 7 6 6 5 4 3 2 1 2 3 2 3 3 3 5 6 6 7 8
12 13 14 10 6 5 4 2 2 2 4 5 5 4 1 2 3 4 5 7 8 8 9 10 11 14 16 19 21 20 20 27 35 37 37 39 41 42 43 44 45 45 44 41 36 29 22 19 18 16 15 14 13 13 13 12 12 12 11 10 9 9 8 8 7 7 7 6 5 4 3 2 2 2 3 3 3 4 4 4 5 6 7 8 9
10 11 11 8 6 5 4 3 2 1 5 8 7 5 2 1 2 3 4 6 8 9 9 10 11 13 17 20 20 19 23 31 37 37 38 40 42 43 43 44 45 45 42 37 30 24 21 19 17 15 14 13 12 12 12 12 12 12 11 10 9 8 8 8 8 7 6 5 4 3 2 2 2 2 3 3 4 5 5 5 6 7 8 8 9
10 10 9 6 4 4 4 3 2 1 3 6 8 8 5 4 5 4 5 6 8 9 9 10 12 14 17 21 22 22 27 34 36 36 38 41 42 43 44 44 45 44 39 32 25 21 20 18 16 14 13 12 12 12 12 12 11 11 10 10 9 8 7 7 6 5 4 3 3 2 1 2 2 3 4 5 5 6 6 7 8 8 8 9 10
12 11 9 6 4 3 3 2 2 1 3 5 8 9 8 8 8 9 9 9 10 11 11 10 12 14 16 19 21 24 31 38 38 37 38 40 42 43 44 44 44 40 33 26 22 20 18 16 15 14 12 11 11 11 11 11 11 10 9 9 9 8 7 7 5 3 2 2 1 1 1 2 3 4 5 6 7 7 8 8 9 9 9 10 10
14 12 9 7 5 4 3 3 1 1 4 7 9 10 9 10 11 11 11 11 10 11 12 12 14 15 16 18 22 26 33 39 39 37 38 41 43 44 45 43 40 34 26 21 20 19 17 15 14 13 12 11 11 11 11 10 10 9 9 9 9 8 7 6 4 3 2 2 2 1 2 4 5 6 7 7 8 9 9 9 10 10 10 11 11
13 11 8 6 5 5 4 2 0 2 4 7 8 8 9 10 12 12 12 12 11 11 12 13 16 17 18 21 25 30 36 40 39 37 39 42 44 45 43 36 29 23 19 17 17 17 16 14 13 12 11 11 11 11 11 10 10 9 9 9 9 8 7 5 4 2 1 1 1 2 4 5 6 6 7 8 9 10 10 10 11 11 11 11 12
12 10 8 5 3 3 4 3 2 3 5 7 8 9 9 10 12 13 13 14 14 13 13 14 16 19 22 27 32 35 38 39 39 38 41 44 45 42 35 27 22 19 16 15 16 16 15 13 12 12 11 11 11 11 11 10 9 9 9 8 8 7 6 5 4 2 1 2 2 3 4 6 6 7 8 9 10 10 11 11 11 11 11 11 11
11 10 8 4 3 2 2 3 4 4 5 6 8 8 9 10 13 14 14 14 15 15 14 16 18 19 21 27 33 37 37 37 38 39 42 43 40 32 25 22 21 19 16 15 15 16 14 13 12 11 11 11 11 11 10 10 9 9 8 7 7 6 4 3 2 1 2 3 3 4 5 6 7 7 9 9 10 11 11 11 11 11 10 9 10
11 9 8 5 3 2 2 3 3 4 6 5 5 8 10 11 13 14 14 14 15 16 16 17 19 20 21 24 31 37 39 38 38 40 41 37 28 21 19 20 19 17 15 15 15 15 14 13 12 11 11 11 11 11 10 10 9 9 8 7 6 4 3 2 1 1 3 3 4 4 5 7 7 8 9 10 11 11 10 10 10 10 9 8 8
11 9 7 5 3 2 3 3 3 5 7 7 6 9 11 12 13 13 13 13 15 16 17 17 18 19 21 25 33 38 38 37 39 39 33 25 20 19 19 19 17 16 16 15 15 14 14 12 12 11 12 11 11 11 11 10 9 8 7 6 5 4 2 1 1 1 2 3 4 5 6 7 8 8 9 10 10 9 9 9 8 8 8 8 8
11 8 6 4 4 3 3 3 3 5 8 8 8 10 12 12 11 11 12 13 14 16 17 17 17 19 23 30 36 37 34 33 34 32 25 19 19 20 19 17 16 16 16 15 14 14 13 13 13 12 12 12 11 11 10 9 8 7 5 3 3 2 1 1 1 2 3 4 5 6 7 7 8 9 9 9 8 7 8 7 7 7 7 8 8
10 7 4 4 5 4 3 3 3 5 7 8 9 11 13 12 10 11 14 15 15 16 16 16 17 22 29 32 33 31 30 30 28 24 21 19 19 19 17 16 17 17 16 14 14 14 14 14 14 13 12 12 11 9 8 7 6 5 4 2 1 0 1 1 1 2 4 5 6 6 7 8 8 9 8 7 6 6 6 6 6 6 7 7 7
10 6 3 4 5 4 2 2 3 4 6 7 8 10 11 10 10 14 15 14 15 18 19 17 17 23 29 30 28 27 27 27 23 20 19 19 18 18 17 16 16 16 16 15 15 16 16 15 14 13 12 11 9 8 7 5 4 3 2 1 0 1 1 1 1 3 4 6 6 7 7 8 8 7 6 5 5 5 5 5 5 6 7 7 7
10 5 2 4 5 2 1 2 4 5 5 5 6 8 10 11 12 15 14 13 16 21 24 23 23 24 25 25 26 27 26 25 23 21 21 20 19 18 18 17 17 18 18 18 18 20 19 17 15 13 11 10 8 7 5 4 2 1 1 1 0 1 1 2 3 4 6 7 7 8 7 7 6 6 5 4 4 5 4 4 5 6 6 7 7
9 5 2 3 5 5 4 5 7 8 8 9 10 11 12 13 14 15 15 15 16 21 25 28 29 27 25 24 25 25 24 23 23 22 21 20 20 19 19 20 21 21 21 21 22 22 20 17 15 13 11 9 8 6 5 4 3 2 1 1 1 1 2 3 4 5 6 7 8 8 7 6 5 4 4 3 4 4 4 4 5 5 6 7 8
5 3 5 7 10 9 8 8 9 10 11 13 15 16 17 17 18 19 20 20 20 21 23 25 26 26 25 24 24 23 23 24 25 25 24 23 22 22 23 24 25 24 24 23 21 19 17 16 13 11 9 8 7 5 4 4 4 3 3 3 2 3 3 3 4 5 6 6 7 6 6 5 4 3 3 3 4 4 4 4 5 6 7 7 8
6 8 11 12 13 13 12 12 13 13 14 16 18 21 23 24 25 26 27 27 25 22 22 23 24 24 25 25 26 26 26 28 29 30 29 28 28 27 27 27 25 24 22 20 18 16 14 12 10 9 8 6 5 5 4 3 3 3 4 4 3 2 2 3 5 5 5 5 5 5 4 4 3 3 3 4 4 4 5 5 6 6 7 7 8
12 14 15 16 17 17 17 18 17 17 18 21 24 27 28 28 29 29 30 29 27 25 25 27 27 27 28 28 28 28 29 30 32 31 31 30 29 27 25 24 23 21 19 17 15 13 11 8 7 6 6 5 5 4 4 4 4 3 3 1 1 2 4 6 6 6 4 3 3 4 3 3 3 3 3 4 5 5 6 6 6 6 7 7 7
17 17 17 18 19 18 19 20 20 20 21 24 28 29 30 29 29 30 31 32 31 30 30 31 31 31 30 29 29 28 29 30 31 30 29 27 26 24 22 21 19 17 15 12 10 8 6 5 4 4 5 5 5 5 5 5 4 4 3 2 3 5 7 7 6 5 4 2 2 2 2 3 3 3 4 5 6 6 6 6 5 6 6 7 8
21 21 21 20 19 20 21 22 21 20 20 22 24 25 26 26 27 28 30 33 34 35 35 35 34 33 31 30 28 28 28 28 28 26 25 24 23 21 19 18 16 13 11 9 7 5 4 4 4 5 5 5 5 5 5 5 4 4 3 3 4 6 8 8 7 6 4 1 1 2 3 3 3 4 5 5 6 6 6 5 5 6 7 7 8
25 24 23 22 23 24 24 23 22 20 21 22 23 23 23 23 23 23 26 28 31 33 34 34 33 33 32 31 30 28 27 26 25 23 22 22 20 18 17 16 13 11 10 8 6 5 5 5 6 6 6 6 6 6 5 5 4 4 4 4 5 7 9 10 8 6 3 0 0 2 3 3 4 5 5 6 6 6 5 5 6 7 7 8 8
24 24 23 22 23 23 23 22 22 22 22 23 23 22 22 22 22 21 21 24 26 28 28 28 28 29 29 29 28 27 26 24 23 22 22 22 20 18 16 14 12 10 8 7 6 5 5 5 6 6 6 7 7 7 6 6 5 4 4 4 5 8 9 9 7 5 3 1 1 2 4 4 5 6 6 6 6 6 6 6 6 7 8 8 8
Wind_Direction
277 275 270 263 254 248 240 230 228 230 228 223 218 219 223 218 221 230 229 225 227 227 228 231 233 237 239 235 231 226 221 219 218 214 213 218 224 228 229 222 220 226 230 232 235 235 234 236 238 240 245 249 256 260 260 262 261 266 278 274 264 256 231 224 243 270 277 280 282 277 281 310 299 291 305 313 326 331 329 323 318 324 334 337 324
281 279 274 265 253 243 236 229 227 224 218 218 220 222 224 222 222 223 217 220 228 227 222 223 228 234 237 236 233 228 224 221 219 219 218 218 221 224 226 222 218 221 225 227 232 235 236 235 236 238 241 244 251 255 256 260 265 265 267 270 272 259 236 231 245 265 275 285 287 276 249 287 292 301 337 336 344 335 324 323 325 331 340 339 326
284 280 275 266 251 241 234 226 220 214 211 217 222 223 224 225 222 216 214 219 227 226 220 220 225 230 233 234 232 228 224 220 217 221 221 219 220 222 224 223 219 218 221 221 225 230 234 237 235 231 231 235 240 244 247 252 259 262 266 272 275 262 244 244 248 257 268 278 282 279 252 249 287 324 359 346 340 328 323 328 330 337 338 326 319
288 282 277 266 252 242 234 221 213 214 216 218 222 224 225 224 220 216 216 219 223 221 218 219 222 226 228 228 227 224 222 218 217 220 221 219 220 222 224 223 221 217 218 220 223 227 231 233 229 215 214 221 225 230 238 244 252 263 269 269 266 255 252 251 242 246 261 261 252 261 307 238 260 2 359 341 332 327 331 334 332 337 332 318 319
292 286 281 270 255 245 234 223 217 217 217 219 223 225 224 221 217 215 217 221 222 218 215 219 223 226 226 223 221 220 219 218 218 219 219 219 221 223 224 222 220 217 215 217 220 225 228 229 226 212 204 210 215 220 232 239 247 262 267 262 253 246 245 247 240 238 251 256 236 187 147 213 222 50 3 334 329 338 343 338 337 342 334 321 325
294 289 285 275 260 248 235 226 224 222 219 221 225 224 222 218 214 215 219 221 220 217 215 218 223 226 225 222 219 218 217 218 219 219 220 220 220 222 222 219 214 212 213 216 223 232 234 227 222 218 212 211 211 219 236 243 248 256 257 250 244 240 237 240 241 239 244 257 260 216 187 201 61 75 29 336 331 350 356 346 348 357 350 333 332
297 293 290 280 263 254 243 234 230 226 222 222 223 222 221 220 217 217 220 219 218 219 216 215 221 225 225 222 219 218 217 218 221 222 219 218 219 219 218 215 207 205 209 211 215 225 229 220 215 214 211 212 221 236 246 244 246 250 244 235 231 230 232 236 237 238 241 247 251 230 195 143 56 41 5 328 321 5 7 345 342 6 355 319 313
299 296 294 287 271 259 252 245 237 231 226 223 223 222 222 224 223 221 222 222 221 222 220 218 221 224 224 222 218 218 219 220 224 225 220 217 216 214 209 205 203 205 209 209 207 207 210 213 213 209 209 218 231 243 243 235 239 245 235 224 224 224 229 232 228 232 244 252 253 235 212 167 115 320 318 325 330 1 10 342 333 345 322 289 282
301 298 297 293 283 270 260 254 247 243 239 233 228 225 225 226 225 223 223 224 224 225 226 225 224 223 222 221 218 218 220 224 228 229 223 215 208 205 202 204 211 215 211 207 205 199 195 203 211 216 221 229 234 230 225 223 229 237 227 215 222 226 227 226 220 226 246 255 246 226 216 189 131 58 328 344 343 336 338 332 329 325 308 293 277
300 298 297 295 290 283 274 263 253 247 245 242 236 231 229 227 224 221 221 223 225 225 225 225 225 222 220 217 216 217 219 226 231 232 227 218 208 205 205 208 219 223 214 206 202 198 198 201 215 228 225 221 222 221 220 218 220 228 223 212 226 233 229 228 221 221 240 245 237 230 230 201 109 60 326 336 328 318 326 332 330 326 316 306 287
296 295 293 291 290 289 283 273 260 249 246 245 241 235 232 229 225 222 221 221 224 224 223 222 220 219 216 211 213 217 219 225 232 231 226 222 213 206 205 208 216 219 213 207 199 197 200 200 210 223 214 203 208 212 212 209 212 220 217 215 230 232 227 241 243 231 231 229 221 238 252 217 99 110 301 322 321 321 330 328 327 327 319 314 312
292 291 288 285 284 284 282 278 269 258 250 246 242 237 234 230 225 223 221 219 221 222 222 219 213 214 216 213 214 219 223 229 234 229 222 222 217 208 201 204 211 213 209 204 197 194 195 188 186 194 194 190 190 185 182 184 188 193 195 207 221 216 212 239 261 237 230 215 184 188 242 235 135 149 345 343 328 325 327 320 326 324 315 324 336
288 284 282 281 278 276 275 274 271 264 258 252 247 242 238 234 229 225 221 220 221 222 220 214 211 213 216 217 218 219 223 229 231 224 220 222 221 212 201 201 209 208 199 195 194 192 187 175 168 173 179 176 171 167 166 163 167 172 164 154 152 152 172 184 79 93 105 137 157 140 103 16 38 67 40 357 324 329 332 326 329 325 320 342 9
287 283 280 277 274 271 269 268 266 265 261 256 250 246 245 243 240 232 224 220 221 222 219 215 215 214 215 220 219 216 217 220 221 220 222 225 222 211 200 200 205 200 192 192 193 188 179 169 166 170 173 170 167 165 160 154 155 157 144 130 113 85 77 76 73 79 80 81 100 97 77 40 30 40 27 343 323 328 328 325 333 333 327 345 25
286 283 280 276 271 265 263 263 263 261 258 252 248 246 244 243 242 236 226 220 220 220 217 216 218 216 217 221 220 215 215 217 219 222 225 225 218 207 198 196 196 192 190 191 187 183 175 167 167 168 165 167 169 166 161 157 157 157 148 135 123 111 108 103 99 97 91 91 98 94 97 113 96 60 9 339 333 329 320 316 324 320 307 300 275
286 284 279 273 268 260 256 257 259 259 254 246 243 241 238 234 234 233 228 222 220 217 213 213 215 216 219 221 220 218 216 218 221 222 221 218 209 202 198 195 191 188 186 180 176 175 168 161 162 162 160 164 164 159 158 159 158 156 149 137 124 118 119 119 121 123 117 117 118 111 112 118 101 68 25 345 335 331 317 300 302 313 303 281 250
287 287 282 275 270 263 255 251 253 254 250 243 240 240 237 233 231 231 230 224 220 219 218 218 217 216 220 222 220 217 214 217 220 219 216 211 201 195 196 192 187 180 172 168 165 162 159 157 156 154 154 159 157 154 156 159 157 153 150 142 126 113 112 112 113 118 116 115 113 105 100 94 79 59 28 349 337 339 323 304 311 321 308 287 278
294 294 291 284 277 269 259 250 246 246 243 240 240 238 235 233 230 228 227 226 223 220 220 223 221 219 221 223 221 216 210 214 218 215 211 206 196 191 189 183 175 164 156 154 153 151 153 157 155 151 151 152 152 152 155 158 157 155 152 145 133 124 126 125 116 108 101 97 97 97 96 91 85 79 66 54 54 41 21 2 350 332 311 314 326
294 293 291 288 281 273 263 253 245 241 237 236 237 235 231 228 225 223 223 223 221 217 218 223 223 221 222 223 222 216 208 211 215 211 207 202 194 188 181 170 161 154 149 144 142 142 145 148 152 152 148 146 149 152 154 156 157 157 157 154 144 138 140 139 131 126 120 111 107 105 100 92 85 77 67 63 64 60 51 36 19 6 348 352 347
290 283 280 281 278 271 263 257 248 239 231 228 231 231 228 225 225 225 221 216 214 215 218 221 220 219 220 220 218 214 209 211 211 206 202 197 189 183 174 162 155 151 147 142 136 134 137 143 148 148 142 143 150 154 154 155 157 158 160 160 157 153 151 149 144 141 138 130 123 114 105 99 92 82 69 61 59 57 52 42 35 26 4 353 352
296 289 283 283 279 269 260 256 251 240 230 224 222 224 224 224 225 222 214 208 211 216 218 220 219 215 212 210 209 209 210 211 208 202 197 192 188 184 172 158 153 147 140 138 134 132 138 144 145 142 140 144 152 157 157 156 154 153 154 154 153 149 144 142 139 139 140 137 130 122 112 105 94 82 72 64 58 54 50 44 39 31 17 8 352
302 297 293 291 286 276 262 250 246 240 231 224 219 216 217 217 215 210 205 206 212 214 215 220 217 206 200 200 202 205 208 209 206 199 193 189 187 184 170 157 154 148 140 135 132 134 141 143 141 141 141 143 148 152 157 160 159 155 154 154 150 140 133 135 141 143 142 135 126 115 107 101 93 82 75 70 61 53 49 45 40 38 33 27 8
307 302 297 295 292 281 267 248 239 234 228 225 218 210 209 209 207 205 204 203 203 201 203 207 202 193 195 201 204 204 202 202 201 197 191 185 182 181 171 161 155 150 143 139 137 139 141 139 137 139 139 138 139 141 146 151 148 142 141 143 139 131 127 132 135 133 128 120 112 103 95 89 88 83 75 70 65 58 54 51 46 48 46 39 39
310 303 297 298 296 285 274 254 235 230 227 227 216 203 205 206 205 206 204 197 193 190 188 188 182 178 177 176 186 195 192 194 202 200 190 177 171 170 166 158 153 149 144 142 142 142 140 137 137 138 135 131 128 127 129 130 127 127 130 129 125 122 124 127 125 123 121 115 108 104 95 83 82 82 75 76 78 74 72 70 51 56 58 38 41
312 304 298 295 287 283 283 262 231 227 225 223 217 208 206 203 199 200 199 196 194 185 176 173 163 155 159 157 147 158 175 194 203 196 179 165 160 161 158 155 156 155 149 144 143 142 139 137 136 134 129 124 121 119 118 119 120 122 123 122 121 123 124 124 124 123 120 116 113 108 100 91 90 92 91 92 96 93 92 89 0 0 349 333 338
309 301 298 293 282 282 291 275 236 223 211 215 219 216 213 208 200 196 197 198 195 181 170 168 157 149 159 159 142 149 175 192 190 179 166 158 157 157 155 153 155 154 148 144 142 139 137 135 133 129 125 122 121 119 119 120 119 117 115 117 121 121 120 120 121 119 116 116 115 111 109 109 108 107 106 104 99 80 17 315 311 323 330 328 322
297 290 291 290 283 283 295 291 253 228 202 207 222 220 217 213 203 198 199 196 190 182 175 171 167 163 158 146 144 161 179 178 171 165 158 153 151 151 149 149 150 148 143 141 139 136 134 133 131 128 124 122 121 120 121 122 121 118 117 117 114 111 112 112 112 113 115 117 119 120 121 125 124 124 130 131 108 44 324 321 323 330 334 328 317
292 289 290 289 285 292 310 308 266 243 194 189 208 214 219 220 211 207 207 198 190 188 182 175 170 160 147 140 145 159 169 166 161 156 151 149 148 147 146 147 147 144 141 139 137 135 133 130 127 125 125 123 122 123 125 127 127 124 120 115 110 109 110 109 110 114 118 123 129 132 135 142 145 153 176 190 254 287 302 322 321 318 323 321 315
304 298 294 292 297 327 341 313 247 231 149 161 176 175 196 231 226 216 208 200 196 192 180 171 163 153 151 154 155 152 155 161 159 155 152 152 152 151 149 147 145 144 144 142 138 134 131 129 128 129 131 133 133 135 136 135 132 127 123 121 119 119 120 120 123 128 133 139 145 147 150 158 160 195 227 238 267 277 280 300 308 313 320 316 310
309 300 295 302 328 352 346 309 249 180 146 148 147 136 133 247 240 222 201 195 198 195 184 177 171 163 163 167 165 161 161 162 159 155 153 154 155 153 151 149 147 146 146 144 139 134 132 133 136 140 143 144 144 143 143 144 141 136 135 135 134 133 136 137 136 140 146 152 153 153 161 177 189 233 252 264 288 288 276 281 297 308 313 309 306
305 300 298 309 337 346 326 304 299 177 153 148 149 159 166 180 207 208 195 190 197 201 196 190 185 178 172 170 170 168 165 162 158 155 155 157 156 153 151 150 150 149 147 143 137 135 136 139 144 149 151 150 149 148 149 149 147 144 145 146 143 143 145 144 143 147 152 155 155 156 174 215 234 265 284 294 304 306 302 299 301 305 306 305 304
303 303 302 308 334 338 322 322 356 77 139 141 151 164 161 126 109 111 133 159 176 183 184 185 187 186 181 175 171 165 161 160 158 156 157 158 156 154 154 154 153 151 147 141 136 137 143 146 150 155 156 153 151 150 150 151 150 151 152 149 145 146 146 145 150 157 154 155 164 167 195 252 268 292 305 306 309 313 314 310 307 306 305 302 300
309 309 309 310 325 342 343 2 46 122 167 163 164 171 172 153 124 106 110 128 145 153 159 169 178 181 181 178 173 164 160 160 159 159 159 158 156 155 155 154 152 150 145 138 134 140 149 153 156 158 157 153 151 152 152 152 151 151 149 145 143 141 136 136 152 163 145 147 195 208 241 294 310 314 316 319 318 314 311 310 309 307 305 305 303
312 312 310 309 322 351 3 7 39 167 203 193 182 185 183 164 143 127 120 120 122 127 133 143 157 165 171 175 172 164 160 160 161 161 160 158 157 155 153 150 149 148 145 139 140 148 156 160 159 157 153 151 151 150 147 147 147 145 144 143 140 135 133 143 162 169 159 186 227 271 334 332 330 324 321 320 316 312 312 312 312 311 311 310 307
311 312 308 300 312 345 352 337 272 184 207 206 195 189 183 168 156 149 142 133 124 117 118 130 147 159 169 173 170 163 160 160 161 160 158 156 155 152 147 144 144 146 146 147 149 153 157 158 153 151 150 149 147 145 145 145 146 145 144 141 136 137 147 164 168 160 187 254 294 354 343 329 323 319 318 316 314 316 316 314 314 314 312 310 309
305 303 303 284 269 313 329 296 247 207 204 207 201 189 182 175 167 159 150 143 135 125 119 126 138 150 160 164 163 160 158 158 159 157 156 155 154 150 145 144 148 152 153 153 150 149 153 152 148 147 149 145 142 144 146 145 144 143 141 140 141 148 160 167 156 147 244 302 329 336 326 321 319 318 317 316 316 317 315 313 313 312 309 310 310
295 294 300 289 255 270 295 274 250 217 197 203 203 190 180 175 167 157 148 144 141 135 131 130 129 131 138 146 151 153 154 156 157 156 155 155 154 150 145 147 152 153 151 149 147 148 152 153 149 146 145 143 143 145 143 139 139 137 135 137 144 146 144 133 117 75 320 315 321 319 317 317 317 317 318 317 317 316 314 312 311 309 306 305 303
293 292 295 288 262 254 265 258 237 202 188 190 196 188 178 170 162 155 150 149 149 146 142 137 131 129 131 136 142 147 147 147 147 148 149 150 150 146 143 147 152 152 147 143 143 145 147 149 147 144 141 140 139 136 134 135 137 136 138 143 144 137 132 138 135 330 307 304 312 317 316 315 317 320 320 317 314 313 312 310 309 308 306 302 296
296 293 287 272 241 231 244 237 208 193 190 187 191 190 179 166 161 162 160 156 154 152 150 143 136 136 139 139 141 143 142 140 140 142 145 147 148 147 147 148 149 150 148 143 140 141 142 142 140 137 134 133 132 132 135 138 139 141 147 151 147 140 149 177 200 303 304 308 318 320 317 317 320 321 319 315 311 311 312 310 308 307 308 306 304
292 291 280 253 227 226 227 211 198 201 197 189 187 186 180 174 171 165 158 154 154 154 151 140 133 138 145 144 142 142 140 139 142 145 147 147 146 146 147 147 146 146 147 145 141 139 136 132 130 128 127 127 128 132 137 137 136 138 143 140 132 134 160 278 313 316 316 318 320 318 319 320 321 319 315 311 308 308 307 306 305 305 305 304 303
291 292 269 224 219 227 218 188 182 194 196 191 183 179 181 181 168 148 146 153 155 149 140 129 128 140 145 142 139 139 139 139 143 148 146 143 142 143 147 149 148 147 145 140 134 131 128 126 126 125 124 125 127 128 129 129 131 136 139 132 122 145 264 289 309 321 324 323 322 321 324 323 319 314 310 307 304 301 297 298 303 305 302 300 303
284 284 243 204 213 233 231 163 151 163 180 183 173 168 170 168 150 141 145 150 143 132 125 119 124 136 140 137 135 136 137 137 140 141 136 133 135 139 141 141 139 137 134 128 123 123 122 121 119 118 119 120 122 122 122 121 121 124 128 129 152 293 304 322 337 332 328 328 327 324 321 315 309 303 297 295 296 296 295 300 308 306 301 302 307
279 271 226 195 195 196 101 105 118 127 139 141 137 139 141 135 130 132 133 130 127 127 126 125 126 130 133 136 139 139 135 131 131 129 124 122 123 125 123 119 119 122 123 123 125 127 125 121 119 120 120 118 117 116 115 116 119 117 105 99 62 340 334 341 343 337 332 331 328 320 311 305 302 298 292 292 298 301 299 300 303 302 303 304 304
267 250 202 157 142 122 87 82 92 93 93 95 98 107 113 112 112 114 115 117 125 131 131 130 129 127 124 126 130 130 128 127 126 123 118 116 116 116 116 120 124 127 128 129 133 136 134 132 134 138 139 137 135 129 116 105 100 88 69 77 84 42 19 3 352 343 335 329 322 313 305 299 296 293 292 295 300 302 301 299 301 305 304 300 297
238 183 126 108 107 102 89 85 88 87 87 90 93 96 99 101 100 101 102 103 108 116 121 123 124 122 118 117 120 120 119 121 121 119 117 116 115 117 122 128 131 131 131 132 136 138 139 141 145 150 154 159 164 167 161 142 126 111 95 84 78 69 51 18 354 343 333 325 318 310 302 299 297 297 304 310 306 302 302 300 300 300 296 293 294
134 115 105 99 97 95 90 88 90 91 91 95 97 98 99 100 99 98 98 99 101 105 106 105 106 106 106 108 111 114 115 117 119 119 119 119 120 123 126 128 130 130 131 133 137 139 142 147 154 161 168 176 182 187 185 166 143 130 116 99 86 74 27 346 339 340 336 325 316 308 302 302 302 302 308 310 304 297 294 291 290 291 291 292 296
106 100 97 96 95 95 95 94 94 94 95 99 103 103 102 101 100 99 98 99 100 99 97 96 96 97 98 99 103 108 112 115 118 119 120 121 122 124 126 127 128 130 131 133 137 141 145 153 163 174 184 188 184 173 155 137 134 146 153 154 235 306 326 335 338 336 330 319 314 312 310 307 304 302 303 301 296 290 286 283 284 289 291 293 298
90 89 91 93 93 94 97 98 97 97 99 102 105 105 105 104 103 103 102 101 99 96 94 94 94 93 94 96 101 106 111 115 118 120 122 123 124 126 128 129 128 128 130 134 138 142 150 163 181 196 198 192 182 176 171 170 179 199 225 258 288 312 331 341 336 320 311 315 319 315 310 306 304 300 295 293 292 291 289 288 292 298 298 299 300
82 86 89 90 89 92 96 98 97 96 98 101 103 103 104 103 103 103 105 105 105 105 104 104 104 105 106 107 110 114 116 118 121 123 124 125 127 128 128 125 123 125 131 136 142 155 173 187 201 208 204 196 191 191 192 198 210 227 252 280 305 323 334 340 334 321 318 342 347 315 310 307 300 294 290 289 288 287 287 292 298 299 298 298 297
82 85 86 87 89 92 95 96 96 97 100 103 103 102 101 100 100 101 103 106 109 112 115 116 119 121 122 123 125 126 125 126 128 129 128 126 126 124 122 122 126 137 146 152 164 190 204 201 201 202 199 197 198 196 193 197 209 229 262 292 317 333 340 342 339 333 332 45 339 308 305 301 294 291 290 289 288 287 288 296 301 300 296 293 293
82 85 86 88 90 93 95 97 98 100 102 103 103 102 103 104 104 103 103 106 111 116 120 122 125 125 125 127 129 130 129 130 131 129 126 126 128 130 134 140 150 160 167 173 187 201 204 198 195 196 195 196 195 192 191 202 218 241 269 298 328 340 342 342 338 327 322 35 24 313 301 296 293 291 290 291 295 299 300 297 294 293 291 289 290